Regional Weather Roundup
Issued by NWS Wilmington, NC

Home | Current Version | Previous Version | Text Only | Print | Product List | Glossary On
Versions: 1 2 3 4 5 6 7 8 9 10 11 12 13 14 15 16 17 18 19 20 21 22 23 24 25 26 27 28 29 30 31 32 33 34 35 36 37 38 39 40 41 42 43 44 45 46 47 48 49 50
287
ASUS42 KILM 170212
RWRILM
RWRILM
REGIONAL HOURLY WEATHER ROUNDUP
NATIONAL WEATHER SERVICE WILMINGTON NC
900 PM EST MON JAN 16 2017

NOTE: "FAIR" INDICATES FEW OR NO CLOUDS BELOW 12,000 FEET WITH NO
SIGNIFICANT WEATHER AND/OR OBSTRUCTIONS TO VISIBILITY.

...............WFO WILMINGTON COUNTY WARNING AREA...............

......COASTAL NC AND SC COUNTIES......

CITY           SKY/WX    TMP DP  RH WIND       PRES   REMARKS
WILMINGTON     CLOUDY    53  47  79 E3        30.34F
N MYRTLE BEACH CLOUDY    54  50  86 NE3       30.34S
MYRTLE BEACH   MOCLDY    57  48  72 N7        30.36S

......INLAND NC AND SC COUNTIES.......

CITY           SKY/WX    TMP DP  RH WIND       PRES   REMARKS
LUMBERTON      CLOUDY    52  48  86 CALM      30.35S
ELIZABETHTOWN  CLOUDY    52  47  83 CALM      30.35S
WHITEVILLE     CLOUDY    52  47  83 CALM      30.34S
FLORENCE       CLOUDY    54  52  93 E3        30.35S
DARLINGTON     CLOUDY    52  50  93 CALM      30.35S
KINGSTREE      CLOUDY    52  50  93 CALM      30.33F FOG
HARTSVILLE     CLOUDY    50  48  93 CALM      30.34S
BENNETTSVILLE  CLOUDY    54  50  87 NE3       30.34F
CONWAY         CLOUDY    52  50  93 CALM      30.35S
GEORGETOWN     CLOUDY    54  50  87 NE7       30.34F
MARION         CLOUDY    52  48  87 CALM      30.35S

....................REST OF NORTH CAROLINA......................

.........EASTERN NC.........

CITY           SKY/WX    TMP DP  RH WIND       PRES   REMARKS
CAPE HATTERAS  PTCLDY    47  42  83 N6        30.35S
JACKSONVILLE   CLOUDY    51  46  83 NE3       30.36F
MOREHEAD CITY  CLOUDY    48  43  82 N3        30.36F
KENANSVILLE    CLOUDY    52  45  76 CALM      30.36S
NEW BERN       CLOUDY    50  43  77 NE3       30.37F
ELIZABETH CITY CLOUDY    43  39  86 N3        30.38S

.........CENTRAL NC.........

CITY           SKY/WX    TMP DP  RH WIND       PRES   REMARKS
RALEIGH DURHAM CLOUDY    49  39  68 S3        30.36S
ROCKY MOUNT    CLOUDY    48  43  82 CALM      30.36F
ROANOKE RAPIDS NOT AVBL
FAYETTEVILLE   CLOUDY    51  46  83 N3        30.35S
HOFFMAN        CLOUDY    48  46  91 N3        30.35R

.........WESTERN NC.........

CITY           SKY/WX    TMP DP  RH WIND       PRES   REMARKS
CHARLOTTE      CLOUDY    51  46  83 SE8       30.34S
GREENSBORO     CLOUDY    47  44  90 S6        30.33S
HICKORY        NOT AVBL
BOONE          NOT AVBL
ASHEVILLE      NOT AVBL

.....................REST OF SOUTH CAROLINA.....................

.........EASTERN SC.........

CITY           SKY/WX    TMP DP  RH WIND       PRES   REMARKS
CHARLESTON     CLOUDY    59  55  87 E6        30.32S
BEAUFORT MCAS  MOCLDY    60  58  92 E3        30.31R
HILTON HEAD    MOCLDY    55  55 100 VRB7      30.31S

.........CENTRAL SC.........

CITY           SKY/WX    TMP DP  RH WIND       PRES   REMARKS
COLUMBIA       CLOUDY    54  52  93 E6        30.33R FOG
ORANGEBURG     FOG       55  55 100 E5        30.32S VSB 1/2
SUMTER SHAW    FOG       52  52 100 E5        30.32R VSB 1

.........WESTERN SC.........

CITY           SKY/WX    TMP DP  RH WIND       PRES   REMARKS
GREENVILLE     NOT AVBL
ROCK HILL      CLOUDY    50  47  89 SE5       30.34S
ANDERSON       CLOUDY    54  52  93 E6        30.30F FOG
CLEMSON        NOT AVBL
GREENWOOD      CLOUDY    54  52  93 E3        30.32S FOG


...................COASTAL AND OFFSHORE REPORTS..................

................LOCAL PIERS AND NC RESERVE................


STATION/POSITION TIME  SKY/WX   TEMP    WIND        PRES    VSBY
                                AIR SEA DIR/SP/G
                 (UTC)          (F)     (DEG/KT/KT) (MB)    (MI)
JOHNY MRCER PIER 0148            53 55   40/  7/  8 1026.5S
NC RESRV MASNBRO 0045            52      60/  4     1027.0
OCEAN CREST PIER NOT AVBL
SPRINGMAID  PIER NOT AVBL


................COASTAL AND OFFSHORE BUOYS................


STATION/POSITION TIME  SKY/WX   TEMP    WIND        PRES    VSBY
                                AIR SEA DIR/SP/G
                 (UTC)          (F)     (DEG/KT/KT) (MB)    (MI)
DIMNDSHOAL 41025 0150            55 73   10/ 14/ 16 1027.1F
WVE H/P(F/S)=  3/ 8 SWL H/P/D(F/S/D)=  2/110/ 8

CAPE LOOKOUT     0100            48      10/  7/  9 1027.7F
ONSLOW BAY 41036 NOT AVBL
ONSLOW BAY 41064 0108            54 62   40/ 10/ 14 1027.5F
ONSLOW BAY 41159 0143               61                N/A
WVE H/P(F/S)=  3/10 SWL H/P/D(F/S/D)=  2/120/11

MASNBO INL 41110 0159               53                N/A
WVE H/P(F/S)=  3/10

WILM HARBR 41108 0156               55                N/A
WVE H/P(F/S)=  3/ 8

27SE WRITB 41037 0108            60 68   50/ 12/ 16 1026.7F
FRYING PAN 41013 0150            65 70   50/ 12/ 16 1027.0R
WVE H/P(F/S)=  4/ 6 SWL H/P/D(F/S/D)=  2/ 50/ 6

SUNST NRSH 41024 0108            55 54   60/  8/ 10 1027.0F
CAPRS NRSH 41029 0108            54 54   50/ 14/ 17 1026.3F
EDISTO     41004 0050            66 70   20/ 14/ 16 1025.6
WVE H/P(F/S)=  4/ 6 SWL H/P/D(F/S/D)=  3/120/10



..........OFFSHORE BUOYS BEYOND 100 NM OFFSHORE...........
.....IN A TRIANGLE---HAT TO BERMUDA TO BAHAMAS TO HAT.....


STATION/POSITION TIME  SKY/WX   TEMP    WIND        PRES    VSBY
                                AIR SEA DIR/SP/G
                 (UTC)          (F)     (DEG/KT/KT) (MB)    (MI)
150E HAT   41001 NOT AVBL
W BERMUDA  41048 0050            66 70   40/  8/ 10 1027.7
WVE H/P(F/S)=  4/ 7 SWL H/P/D(F/S/D)=  3/340/ 7

ATLANTIC S 41049 0050            70 74   50/ 17/ 21 1023.7
WVE H/P(F/S)=  5/ 9 SWL H/P/D(F/S/D)=  3/ 30/ 9

E BAHAMAS  41046 0150            75 78   50/ 16/ 19 1023.5R
WVE H/P(F/S)=  7/ 7 SWL H/P/D(F/S/D)=  3/10

NE BAHAMAS 41047 0150            72 74   60/ 16/ 19 1025.8R
WVE H/P(F/S)=  5/ 8 SWL H/P/D(F/S/D)=  3/ 80/ 8

120E CANVRL41010 NOT AVBL

END




USA.gov is the U.S. government's official web portal to all federal, state and local government web resources and services.